DW2363 Weather Reports


Display with metric or nautical units.
time (UTC)temp
F
wind
direction
speed
MPH
gust
MPH
rain 1hr
in
rain 24hr
in
rain mn
in
humidity
%
barometer
mb
20260906161127 66 158 9.0 15.0 0.03 0.33 0.33 93 1016.3
20260906160628 67 158 9.0 15.0 0.02 0.32 0.32 93 1016.2
20260906160128 67 159 10.0 15.0 0.01 0.31 0.31 92 1016.2
20260906155627 67 146 9.0 15.0 0.01 0.31 0.31 92 1016.0
20260906155126 67 147 10.0 15.0 0.01 0.31 0.31 92 1015.8
20260906154625 67 151 11.0 15.0 0.01 0.31 0.31 92 1015.8
20260906154124 67 162 10.0 14.0 0.01 0.30 0.30 92 1015.8
20260906153623 68 170 10.0 12.0 0.01 0.30 0.30 92 1015.7
20260906153122 68 169 8.0 12.0 0.01 0.30 0.30 92 1015.7
20260906152622 68 161 8.0 12.0 0.01 0.30 0.30 92 1015.5
20260906152119 68 157 7.0 12.0 0.01 0.30 0.30 93 1015.3
20260906151620 68 148 5.0 9.0 0.02 0.30 0.30 93 1015.2
20260906151120 68 155 7.0 11.0 0.03 0.30 0.30 92 1015.2
20260906150625 68 161 7.0 10.0 0.04 0.30 0.30 92 1015.0
20260906150619 68 162 8.0 11.0 0.04 0.30 0.30 92 1015.1
20260906145620 68 160 7.0 10.0 0.05 0.30 0.30 92 1015.0
20260906145120 68 148 7.0 9.0 0.05 0.30 0.30 91 1015.1
20260906144619 68 144 4.0 9.0 0.06 0.30 0.30 91 1014.9
20260906144119 68 120 2.0 7.0 0.05 0.29 0.29 91 1015.0
20260906143620 68 32 3.0 5.0 0.05 0.29 0.29 91 1014.9
20260906143119 68 32 5.0 6.0 0.05 0.29 0.29 91 1014.9
20260906142619 67 32 5.0 8.0 0.07 0.29 0.29 91 1014.9
20260906142119 67 24 6.0 8.0 0.08 0.29 0.29 92 1014.8
20260906141619 65 11 6.0 12.0 0.10 0.28 0.28 92 1014.6
20260906141120 65 5 9.0 12.0 0.16 0.27 0.27 93 1014.6
20260906140619 64 0 10.0 12.0 0.22 0.26 0.26 92 1014.5
20260906140119 62 355 10.0 12.0 0.24 0.26 0.26 90 1014.5
20260906135619 62 0 10.0 12.0 0.23 0.25 0.26 86 1014.6
20260906135119 64 345 9.0 11.0 0.24 0.25 0.25 85 1014.8
20260906134619 66 350 8.0 11.0 0.24 0.24 0.24 87 1014.6
20260906134119 66 347 4.0 10.0 0.24 0.24 0.24 87 1014.8
20260906133619 67 15 3.0 10.0 0.24 0.24 0.24 90 1015.0
20260906133119 65 9 3.0 10.0 0.24 0.24 0.24 89 1014.9
20260906132626 63 242 10.0 14.0 0.18 0.18 0.18 75 1014.8
20260906132618 65 24 2.0 10.0 0.22 0.22 0.22 90 1014.9
20260906132119 65 250 6.0 12.0 0.21 0.21 0.21 89 1014.6
20260906131119 66 226 10.0 15.0 0.11 0.11 0.11 74 1015.1
20260906130619 69 206 8.0 15.0 0.04 0.04 0.04 74 1014.9
20260906130118 66 199 7.0 14.0 0.02 0.02 0.02 57 1014.5
20260906125619 63 312 5.0 14.0 0.02 0.02 0.02 58 1014.3
20260906125124 62 134 12.0 20.0 0.00 0.00 0.00 82 1014.8
20260906125119 62 129 6.0 20.0 0.01 0.01 0.01 70 1014.4
20260906124119 63 142 16.0 28.0 0.00 0.00 0.00 82 1014.9
20260906123619 65 144 19.0 29.0 0.00 0.00 0.00 72 1015.0
20260906123125 73 175 7.0 14.0 0.00 0.00 0.00 35 1014.6
20260906123119 70 165 14.0 29.0 0.00 0.00 0.00 50 1015.1
20260906122727 73 146 5.0 9.0 0.00 0.00 0.00 33 1014.3
20260906121618 73 157 5.0 8.0 0.00 0.00 0.00 31 1014.3
20260906121118 73 148 6.0 9.0 0.00 0.00 0.00 31 1014.1
20260906120617 74 164 6.0 9.0 0.00 0.00 0.00 31 1014.2
20260906120118 74 165 5.0 9.0 0.00 0.00 0.00 29 1014.1
20260906115617 74 157 5.0 7.0 0.00 0.00 0.00 29 1014.1
20260906115117 74 161 4.0 7.0 0.00 0.00 0.00 26 1014.1
20260906114617 74 138 4.0 7.0 0.00 0.00 0.00 28 1014.0
20260906114117 74 128 3.0 6.0 0.00 0.00 0.00 28 1014.0
20260906113617 74 119 4.0 7.0 0.00 0.00 0.00 31 1014.1
20260906113117 74 100 4.0 7.0 0.00 0.00 0.00 33 1014.1
20260906112615 74 102 4.0 6.0 0.00 0.00 0.00 33 1014.1
20260906112115 74 109 4.0 11.0 0.00 0.00 0.00 33 1014.1
20260906111615 74 136 4.0 11.0 0.00 0.00 0.00 33 1014.1
20260906111115 74 138 6.0 12.0 0.00 0.00 0.00 33 1014.2
20260906110619 75 146 4.0 9.0 0.00 0.00 0.00 31 1014.2
20260906110615 74 142 7.0 12.0 0.00 0.00 0.00 32 1014.3
20260906105615 75 119 3.0 4.0 0.00 0.00 0.00 27 1014.0
20260906105115 74 132 2.0 4.0 0.00 0.00 0.00 25 1014.0
20260906104615 74 144 1.0 3.0 0.00 0.00 0.00 27 1014.1
20260906104114 74 144 3.0 7.0 0.00 0.00 0.00 32 1014.1
20260906103613 74 141 4.0 7.0 0.00 0.00 0.00 33 1014.1
20260906103113 74 141 5.0 8.0 0.00 0.00 0.00 33 1014.1
20260906102613 74 136 6.0 8.0 0.00 0.00 0.00 33 1014.2
20260906102114 74 134 6.0 8.0 0.00 0.00 0.00 33 1014.2
20260906101613 74 133 4.0 8.0 0.00 0.00 0.00 33 1014.2
20260906101113 74 122 4.0 5.0 0.00 0.00 0.00 32 1014.1
20260906100617 74 131 5.0 7.0 0.00 0.00 0.00 34 1014.1
20260906100613 74 125 4.0 5.0 0.00 0.00 0.00 33 1014.1
20260906095616 74 132 6.0 7.0 0.00 0.00 0.00 33 1014.2
20260906095612 74 136 6.0 7.0 0.00 0.00 0.00 33 1014.2
20260906095218 74 135 6.0 7.0 0.00 0.00 0.00 32 1014.3
20260906094111 74 125 5.0 7.0 0.00 0.00 0.00 32 1014.3
20260906093610 74 115 6.0 7.0 0.00 0.00 0.00 32 1014.3
20260906093110 75 111 5.0 7.0 0.00 0.00 0.00 31 1014.3
20260906092613 75 104 4.0 6.0 0.00 0.00 0.00 30 1014.1
20260906092609 75 107 5.0 6.0 0.00 0.00 0.00 31 1014.2
20260906091609 75 94 4.0 6.0 0.00 0.00 0.00 31 1014.1
20260906091111 75 91 4.0 6.0 0.00 0.00 0.00 30 1014.1
20260906091107 75 94 5.0 6.0 0.00 0.00 0.00 30 1014.1
20260906090713 75 90 4.0 6.0 0.00 0.00 0.00 30 1014.2
20260906085611 75 90 4.0 6.0 0.00 0.00 0.00 29 1014.3
20260906085607 75 85 4.0 6.0 0.00 0.00 0.00 30 1014.2
20260906084609 75 86 3.0 6.0 0.00 0.00 0.00 29 1014.3
20260906084605 75 85 3.0 4.0 0.00 0.00 0.00 29 1014.4
20260906084211 75 104 4.0 6.0 0.00 0.00 0.00 29 1014.4
20260906083712 75 98 4.0 7.0 0.00 0.00 0.00 28 1014.4
20260906083104 75 109 5.0 7.0 0.00 0.00 0.00 28 1014.4
20260906082104 75 84 4.0 6.0 0.00 0.00 0.00 27 1014.4
20260906081604 75 88 3.0 6.0 0.00 0.00 0.00 28 1014.4
20260906081104 75 86 3.0 4.0 0.00 0.00 0.00 27 1014.4
20260906080605 75 106 3.0 4.0 0.00 0.00 0.00 27 1014.4
20260906080105 75 115 2.0 4.0 0.00 0.00 0.00 27 1014.5
20260906075605 75 132 2.0 2.0 0.00 0.00 0.00 29 1014.5
20260906075104 75 132 1.0 2.0 0.00 0.00 0.00 30 1014.5
20260906074604 75 132 1.0 3.0 0.00 0.00 0.00 31 1014.5
20260906074104 75 132 2.0 3.0 0.00 0.00 0.00 31 1014.5
20260906073607 75 133 2.0 3.0 0.00 0.00 0.00 27 1014.5
20260906073603 75 132 3.0 3.0 0.00 0.00 0.00 29 1014.5
20260906072602 74 138 1.0 3.0 0.00 0.00 0.00 27 1014.5
20260906072102 74 192 0.0 2.0 0.00 0.00 0.00 27 1014.4
20260906071603 74 195 0.0 2.0 0.00 0.00 0.00 28 1014.4
20260906071102 74 198 0.0 0.0 0.00 0.00 0.00 28 1014.4
20260906070603 74 198 0.0 0.0 0.00 0.00 0.00 28 1014.4
20260906065602 74 198 0.0 0.0 0.00 0.00 0.00 28 1014.4
20260906065102 74 198 0.0 1.0 0.00 0.00 0.00 31 1014.5
20260906064602 74 198 0.0 1.0 0.00 0.00 0.00 33 1014.5
20260906064100 74 198 0.0 2.0 0.00 0.00 0.00 33 1014.5
20260906063600 74 198 1.0 2.0 0.00 0.00 0.00 33 1014.4
20260906063100 74 198 2.0 2.0 0.00 0.00 0.00 34 1014.5
20260906062606 74 198 2.0 3.0 0.00 0.00 0.00 34 1014.5
20260906062600 74 198 2.0 3.0 0.00 0.00 0.00 34 1014.5
20260906061600 74 198 1.0 3.0 0.00 0.00 0.00 34 1014.5
20260906061105 74 198 2.0 3.0 0.00 0.00 0.00 33 1014.6
20260906061059 74 198 2.0 3.0 0.00 0.00 0.00 34 1014.5
20260906060707 74 198 2.0 2.0 0.00 0.00 0.00 33 1014.5
20260906055559 74 198 2.0 2.0 0.00 0.00 0.00 32 1014.5
20260906055058 74 198 2.0 3.0 0.00 0.00 0.00 32 1014.5
20260906054558 74 198 2.0 3.0 0.00 0.00 0.00 30 1014.5
20260906054058 74 198 2.0 3.0 0.00 0.00 0.00 31 1014.6
20260906053605 74 216 0.0 3.0 0.00 0.00 0.00 32 1014.8
20260906053558 74 200 1.0 3.0 0.00 0.00 0.00 31 1014.6
20260906052559 74 233 0.0 2.0 0.00 0.00 0.00 33 1014.8
20260906052058 74 233 0.0 2.0 0.00 0.00 0.00 33 1014.8
20260906051557 74 233 1.0 2.0 0.00 0.00 0.00 33 1014.8
20260906051058 74 233 1.0 2.0 0.00 0.00 0.00 33 1014.8
20260906050558 74 233 0.0 2.0 0.00 0.00 0.00 32 1014.9
20260906050058 74 233 1.0 2.0 0.00 0.00 0.00 33 1014.8
20260906045558 74 233 2.0 3.0 0.00 0.00 0.00 33 1014.9
20260906045058 74 233 2.0 3.0 0.00 0.00 0.00 33 1014.8
20260906044604 74 232 3.0 4.0 0.00 0.00 0.00 33 1014.9
20260906044558 74 232 2.0 3.0 0.00 0.00 0.00 33 1014.8
20260906043558 74 232 3.0 4.0 0.00 0.00 0.00 33 1015.0
20260906043058 74 232 3.0 4.0 0.00 0.00 0.00 33 1014.8
20260906042558 74 232 3.0 5.0 0.00 0.00 0.00 31 1014.9
20260906042103 74 209 4.0 5.0 0.00 0.00 0.00 28 1014.9
20260906042057 74 231 4.0 5.0 0.00 0.00 0.00 29 1014.9
20260906041058 74 191 4.0 5.0 0.00 0.00 0.00 28 1014.8
20260906040556 74 187 4.0 5.0 0.00 0.00 0.00 28 1014.8
20260906040055 75 192 4.0 5.0 0.00 0.00 0.00 29 1014.8
20260906035555 75 207 4.0 5.0 0.00 0.00 0.00 29 1014.6
20260906035055 75 207 3.0 5.0 0.00 0.00 0.00 28 1014.6
20260906034558 75 207 3.0 5.0 0.00 0.00 0.00 31 1014.5
20260906034554 75 207 3.0 5.0 0.00 0.00 0.00 28 1014.4
20260906033554 75 207 3.0 5.0 0.00 0.00 0.00 27 1014.4
20260906033053 74 207 3.0 5.0 0.00 0.00 0.00 26 1014.4
20260906032553 74 207 3.0 5.0 0.00 0.00 0.00 26 1014.3
20260906032053 75 196 3.0 5.0 0.00 0.00 0.00 26 1014.2
20260906031554 75 198 3.0 5.0 0.00 0.00 0.00 26 1014.2
20260906031054 75 194 3.0 4.0 0.00 0.00 0.00 27 1014.1
20260906030554 75 187 3.0 5.0 0.00 0.00 0.00 27 1014.0
20260906030054 75 184 3.0 5.0 0.00 0.00 0.00 31 1014.1
20260906025554 75 207 3.0 5.0 0.00 0.00 0.00 31 1014.1
20260906025058 75 218 4.0 5.0 0.00 0.00 0.00 31 1014.0
20260906025054 75 221 3.0 5.0 0.00 0.00 0.00 31 1014.0
20260906024054 75 223 4.0 5.0 0.00 0.00 0.00 28 1014.0
20260906023557 75 221 4.0 6.0 0.00 0.00 0.00 28 1014.1
20260906023553 75 217 4.0 5.0 0.00 0.00 0.00 29 1014.0
20260906022554 75 224 4.0 6.0 0.00 0.00 0.00 30 1014.1
20260906022053 75 225 4.0 5.0 0.00 0.00 0.00 29 1014.0
20260906021553 76 225 5.0 8.0 0.00 0.00 0.00 28 1014.1
20260906021053 76 213 6.0 9.0 0.00 0.00 0.00 31 1014.1
20260906020559 76 211 5.0 7.0 0.00 0.00 0.00 30 1014.2
20260906020553 76 195 6.0 9.0 0.00 0.00 0.00 30 1014.1
20260906015554 76 194 5.0 7.0 0.00 0.00 0.00 31 1014.1
20260906015058 76 196 5.0 7.0 0.00 0.00 0.00 33 1014.1
20260906015054 76 213 5.0 6.0 0.00 0.00 0.00 31 1014.1
20260906014700 76 193 5.0 8.0 0.00 0.00 0.00 35 1014.0
20260906013553 77 196 5.0 8.0 0.00 0.00 0.00 37 1014.1
20260906013053 77 191 5.0 8.0 0.00 0.00 0.00 32 1014.1
20260906012553 77 182 4.0 7.0 0.00 0.00 0.00 34 1014.1
20260906012053 77 221 5.0 8.0 0.00 0.00 0.00 31 1014.1
20260906011555 78 204 5.0 8.0 0.00 0.00 0.00 38 1014.1
20260906011551 77 232 5.0 8.0 0.00 0.00 0.00 38 1014.2
20260906011158 78 163 4.0 8.0 0.00 0.00 0.00 36 1014.2
20260906010657 78 186 5.0 9.0 0.00 0.00 0.00 38 1014.2
20260906005551 78 192 5.0 9.0 0.00 0.00 0.00 34 1014.2
20260906005051 78 200 5.0 8.0 0.00 0.00 0.00 31 1014.2
20260906004551 78 211 5.0 9.0 0.00 0.00 0.00 32 1014.2
20260906004049 78 175 6.0 9.0 0.00 0.00 0.00 35 1014.1
20260906003549 78 165 6.0 9.0 0.00 0.00 0.00 34 1014.1
20260906003049 78 161 5.0 10.0 0.00 0.00 0.00 35 1014.1
20260906002549 78 155 5.0 10.0 0.00 0.00 0.00 33 1014.0
20260906002049 78 171 6.0 10.0 0.00 0.00 0.00 33 1014.0
20260906001547 78 163 6.0 10.0 0.00 0.00 0.00 33 1014.1
20260906001051 77 170 4.0 8.0 0.00 0.00 0.00 32 1014.2
20260906001047 77 180 5.0 9.0 0.00 0.00 0.00 33 1014.1
20260906000047 77 192 5.0 9.0 0.00 0.00 0.00 33 1014.2
20260905235552 77 159 6.0 9.0 0.00 0.00 0.00 38 1014.2
20260905235547 76 171 5.0 9.0 0.00 0.00 0.00 33 1014.1
20260905234547 77 159 6.0 10.0 0.00 0.00 0.00 37 1014.1
20260905234047 78 166 7.0 11.0 0.00 0.00 0.00 34 1014.2
20260905233546 78 165 7.0 11.0 0.00 0.00 0.00 28 1014.1
20260905233046 78 180 8.0 11.0 0.00 0.00 0.00 27 1014.1
20260905232545 78 178 8.0 11.0 0.00 0.00 0.00 27 1014.1
20260905232045 78 176 7.0 11.0 0.00 0.00 0.00 30 1014.1
20260905231545 78 160 7.0 10.0 0.00 0.00 0.00 28 1014.2
20260905231045 78 144 7.0 10.0 0.00 0.00 0.00 31 1014.3
20260905230545 78 155 7.0 11.0 0.00 0.00 0.00 33 1014.3
20260905230045 78 155 8.0 12.0 0.00 0.00 0.00 35 1014.4
20260905225546 78 175 8.0 12.0 0.00 0.00 0.00 35 1014.4
20260905225046 78 165 7.0 13.0 0.00 0.00 0.00 31 1014.3
20260905224546 78 173 8.0 13.0 0.00 0.00 0.00 33 1014.4
20260905224044 78 189 8.0 13.0 0.00 0.00 0.00 33 1014.4
20260905223543 78 167 8.0 12.0 0.00 0.00 0.00 35 1014.4
20260905223044 78 209 9.0 14.0 0.00 0.00 0.00 34 1014.4
20260905222544 78 174 9.0 14.0 0.00 0.00 0.00 33 1014.4
20260905222044 78 163 9.0 14.0 0.00 0.00 0.00 36 1014.4
20260905221543 78 176 8.0 14.0 0.00 0.00 0.00 33 1014.5
20260905221042 78 155 8.0 13.0 0.00 0.00 0.00 36 1014.6
20260905220542 78 191 7.0 13.0 0.00 0.00 0.00 34 1014.8
20260905220042 78 153 6.0 11.0 0.00 0.00 0.00 34 1014.8
20260905215539 78 149 6.0 10.0 0.00 0.00 0.00 32 1014.8
20260905215039 78 157 6.0 10.0 0.00 0.00 0.00 33 1014.8
20260905214540 77 155 6.0 11.0 0.00 0.00 0.00 34 1014.9
20260905214039 77 134 6.0 12.0 0.00 0.00 0.00 36 1014.9
20260905213539 77 140 6.0 12.0 0.00 0.00 0.00 37 1015.0
20260905213038 77 169 7.0 12.0 0.00 0.00 0.00 34 1015.0
20260905212538 77 162 8.0 14.0 0.00 0.00 0.00 38 1015.1
20260905212039 77 182 8.0 14.0 0.00 0.00 0.00 39 1015.1
20260905211539 77 175 7.0 12.0 0.00 0.00 0.00 42 1015.1
20260905211039 77 139 7.0 14.0 0.00 0.00 0.00 44 1015.1
20260905210538 76 150 6.0 14.0 0.00 0.00 0.00 41 1015.1
20260905210038 77 170 7.0 13.0 0.00 0.00 0.00 40 1015.2
20260905205539 77 172 8.0 14.0 0.00 0.00 0.00 37 1015.3
20260905205039 78 133 7.0 14.0 0.00 0.00 0.00 40 1015.2
20260905204538 78 172 7.0 12.0 0.00 0.00 0.00 42 1015.3
20260905204044 78 156 6.0 12.0 0.00 0.00 0.00 45 1015.3
20260905204038 78 154 6.0 12.0 0.00 0.00 0.00 40 1015.3
20260905203038 78 163 6.0 13.0 0.00 0.00 0.00 44 1015.3
20260905202539 78 178 7.0 13.0 0.00 0.00 0.00 39 1015.3
20260905202039 78 122 8.0 12.0 0.00 0.00 0.00 36 1015.3
20260905201545 78 165 5.0 9.0 0.00 0.00 0.00 43 1015.4
20260905201539 78 174 6.0 12.0 0.00 0.00 0.00 39 1015.4
20260905200539 78 165 6.0 9.0 0.00 0.00 0.00 40 1015.4
20260905200038 77 160 7.0 11.0 0.00 0.00 0.00 44 1015.6
20260905195537 77 155 7.0 13.0 0.00 0.00 0.00 47 1015.6
20260905195036 77 177 6.0 13.0 0.00 0.00 0.00 46 1015.7
20260905194536 77 150 5.0 10.0 0.00 0.00 0.00 47 1015.7
20260905194036 77 180 5.0 12.0 0.00 0.00 0.00 46 1015.7
20260905193536 77 137 5.0 12.0 0.00 0.00 0.00 40 1015.6
20260905193035 77 157 5.0 12.0 0.00 0.00 0.00 42 1015.6
20260905192534 77 118 5.0 12.0 0.00 0.00 0.00 42 1015.7
20260905192033 76 150 5.0 12.0 0.00 0.00 0.00 51 1015.8
20260905191535 76 190 6.0 12.0 0.00 0.00 0.00 46 1015.9
20260905191035 76 144 8.0 12.0 0.00 0.00 0.00 48 1015.8
20260905190537 76 140 6.0 10.0 0.00 0.00 0.00 37 1016.0
20260905190533 77 142 7.0 12.0 0.00 0.00 0.00 38 1015.9
20260905185532 76 169 6.0 10.0 0.00 0.00 0.00 42 1015.9
20260905185032 76 127 5.0 10.0 0.00 0.00 0.00 41 1016.0
20260905184532 76 90 6.0 10.0 0.00 0.00 0.00 40 1016.2
20260905184033 76 139 5.0 12.0 0.00 0.00 0.00 48 1016.2
20260905183532 76 132 5.0 12.0 0.00 0.00 0.00 47 1016.0
20260905183032 76 139 6.0 10.0 0.00 0.00 0.00 41 1016.2
20260905182533 76 128 6.0 10.0 0.00 0.00 0.00 38 1016.2
20260905182033 76 113 5.0 10.0 0.00 0.00 0.00 38 1016.2
20260905181532 76 153 4.0 10.0 0.00 0.00 0.00 37 1016.2
20260905181030 75 115 4.0 8.0 0.00 0.00 0.00 33 1016.2
20260905180528 75 155 5.0 10.0 0.00 0.00 0.00 31 1016.3
20260905180028 75 111 5.0 10.0 0.00 0.00 0.00 31 1016.2
20260905175528 75 124 5.0 9.0 0.00 0.00 0.00 36 1016.0
20260905175027 74 106 6.0 11.0 0.00 0.00 0.00 30 1016.0
20260905174526 74 123 7.0 12.0 0.00 0.00 0.00 38 1016.0
20260905174027 73 115 8.0 14.0 0.00 0.00 0.00 41 1015.9
20260905173531 72 100 10.0 14.0 0.00 0.00 0.00 34 1015.8
20260905173526 73 94 9.0 14.0 0.00 0.00 0.00 40 1015.9
20260905173133 73 106 9.0 14.0 0.00 0.00 0.00 36 1015.7
20260905172030 73 103 9.0 13.0 0.00 0.00 0.00 39 1015.7
20260905172026 73 119 9.0 14.0 0.00 0.00 0.00 39 1015.8
20260905171633 73 127 9.0 12.0 0.00 0.00 0.00 36 1015.6
20260905170525 74 117 9.0 12.0 0.00 0.00 0.00 36 1015.5
20260905170027 74 109 8.0 12.0 0.00 0.00 0.00 32 1015.6
20260905165520 73 120 8.0 13.0 0.00 0.00 0.00 31 1015.6
20260905165020 73 88 8.0 13.0 0.00 0.00 0.00 28 1015.5
20260905164520 72 94 8.0 12.0 0.00 0.00 0.00 26 1015.5
20260905164020 72 103 9.0 12.0 0.00 0.00 0.00 30 1015.4
20260905163520 72 65 9.0 11.0 0.00 0.00 0.00 31 1015.4
20260905163020 72 71 8.0 11.0 0.00 0.00 0.00 34 1015.3
20260905162519 73 70 7.0 10.0 0.00 0.00 0.00 35 1015.3
20260905162020 72 91 6.0 9.0 0.00 0.00 0.00 31 1015.2